Location: Peterborough
(44.3091°N, 78.3197°W)
Time: 04:27:28
(UTC-04:00)

S-56A Canister/Altair - Pass Details

Date: 22 March 2023
Orbit: 639 x 2492 km, 38.9° (Epoch: 08 June)

Event Time Altitude Azimuth Distance (km) Brightness Sun altitude
Rises 02:11:51 0° 281° (WNW) 6,123 12.1 -43.7°
Reaches altitude 10° 02:15:59 10° 277° (W) 5,154 11.6 -43.5°
Enters shadow 02:18:08 16° 274° (W) 4,664 11.3 -43.3°
Maximum altitude 02:30:06 50° 209° (SSW) 2,798 - -42.5°
Drops below altitude 10° 02:41:44 10° 140° (SE) 4,292 - -41.6°
Sets 02:44:51 0° 134° (SE) 5,061 - -41.3°
